Home > Weather > Billings > Past weeks

Flag for USA Past Weather in Billings, Montana, USA — Yesterday and Last 2 Weeks

Now
66 °F

Broken clouds.


Feels Like: 66 °F
Forecast: 47 / 67 °F
Wind: 17 mph from North

Location: Billings Logan International Airport

Current Time: May 26, 2016 at 12:35:54 PM

Latest Report: May 26, 2016 at 11:53 AM


Visibility: 10 mi

Pressure: 29.88 "Hg (26.74 "Hg at 946m altitude)

Humidity: 34%

Dew Point: 37 °F

Location of BillingsLocation

Past Weather in Billings — Graph

°F

Billings Temperature Yesterday

Maximum temperature yesterday: 70 °F (at 4:53 PM)
Minimum temperature yesterday: 45 °F (at 6:53 AM)
Average temperature yesterday: 56 °F

High & Low Weather Summary for the Past Weeks

 TemperatureHumidityPressure
High80 °F (May 19, 3:53 PM)97% (May 13, 2:53 AM)30.50 "Hg (May 13, 2:53 AM)
Low34 °F (May 14, 2:53 AM)21% (May 17, 3:53 PM)29.47 "Hg (May 19, 4:53 PM)
Average54 °F59%29.94 "Hg
* Reported May 11 10:53 AM — May 26 10:53 AM, Billings, Weather by CustomWeather, © 2016

Note: Actual official high and low records may vary slightly from our data, if they occured in-between our weather recording intervals... More about our weather records

Advertising

Billings Weather History for the Previous 24 Hours

Scroll right to see more
 ConditionsComfort  
Time TempWeatherWind HumidityBarometerVisibility
10:53 AM
Thu, May 26
64 °FBroken clouds.17 mph40%29.89 "Hg10 mi
9:53 AM63 °FScattered clouds.13 mph48%29.90 "Hg10 mi
8:53 AM56 °FBroken clouds.7 mph65%29.93 "Hg10 mi
7:53 AM53 °FBroken clouds.5 mph69%29.92 "Hg10 mi
6:53 AM50 °FScattered clouds.12 mph77%29.91 "Hg10 mi
5:53 AM49 °FPassing clouds.16 mph77%29.89 "Hg10 mi
4:53 AM49 °FPassing clouds.12 mph77%29.88 "Hg10 mi
3:53 AM50 °FPassing clouds.12 mph74%29.88 "Hg10 mi
2:53 AM51 °FPassing clouds.14 mph71%29.88 "Hg10 mi
1:53 AM51 °FPartly cloudy.10 mph71%29.88 "Hg10 mi
12:53 AM51 °FPartly cloudy.13 mph71%29.90 "Hg10 mi
11:53 PM
Wed, May 25
50 °FPassing clouds.8 mph77%29.90 "Hg10 mi
10:53 PM49 °FPartly cloudy.6 mph84%29.91 "Hg10 mi
9:53 PM51 °FMostly cloudy.8 mph74%29.91 "Hg10 mi
8:53 PM52 °FPartly sunny.17 mph75%29.88 "Hg10 mi
8:00 PM59 °FThunderstorms. Scattered clouds.21 mph51%29.87 "Hg10 mi
6:53 PM63 °FBroken clouds.10 mph48%29.83 "Hg10 mi
5:53 PM68 °FPartly sunny.6 mph32%29.81 "Hg10 mi
4:53 PM70 °FScattered clouds.12 mph25%29.79 "Hg10 mi
3:53 PM69 °FScattered clouds.6 mph32%29.81 "Hg10 mi
2:53 PM66 °FScattered clouds.6 mph37%29.84 "Hg10 mi
1:53 PM65 °FScattered clouds.No wind40%29.84 "Hg10 mi
12:53 PM64 °FScattered clouds.6 mph49%29.85 "Hg10 mi
Weather by CustomWeather, © 2016

See weather overviewHow to use our weather pages